Location: Aldenham
(51.6667°N, 0.3500°W)
Time: 18:18:33
(UTC+00:00)

Cosmos 1634 Rocket - Pass Details

Date: 18 November 2025
Orbit: 958 x 992 km, 82.9° (Epoch: 10 December)

Event Time Altitude Azimuth Distance (km) Brightness Sun altitude
Rises 19:27:26 0° 193° (SSW) 3,680 7.1 -30.6°
Reaches altitude 10° 19:29:58 10° 194° (SSW) 2,731 6.4 -31.0°
Enters shadow 19:34:53 57° 211° (SSW) 1,147 4.3 -31.8°
Exits shadow 19:42:26 10° 8° (N) 2,703 6.3 -32.9°
Drops below altitude 10° 19:42:35 10° 8° (N) 2,759 6.4 -33.0°
Sets 19:45:00 0° 10° (N) 3,671 7.0 -33.3°
